Weather History for Wahoo, NE

Change the Weather History Date:

Tuesday, January 22, 2013

  Actual Average Record
Temperature  
Mean Temperature 18 °F -  
Max Temperature 24 °F 37 °F 64 °F (1981)
Min Temperature 11 °F 15 °F -9 °F (1966)
Degree Days  
Heating Degree Days 48    
Moisture  
Dew Point 9 °F    
Average Humidity 76    
Maximum Humidity 88    
Minimum Humidity 58    
Precipitation  
Precipitation 0.00 in - - ()
Sea Level Pressure  
Sea Level Pressure 30.29 in    
Wind  
Wind Speed 4 mph (SE)    
Max Wind Speed 9 mph    
Max Gust Speed 16 mph    
Visibility 8 miles    
Events Snow    
Averages and records for this station are not official NWS values.
T = Trace of Precipitation, MM = Missing Value Source: NWS Daily Summary

Daily Weather History Graph

Daily Weather History Graph

Search for Another Location

Airport:

Trip Planner

Search our weather history database for the weather conditions in past years. The results will help you decide how hot, cold, wet, or windy it might be!

Date:

Astronomy

Jan. 22, 2013 Rise Set
Actual Time 7:45 AM CST 5:30 PM CST
Civil Twilight 7:15 AM CST 6:00 PM CST
Nautical Twilight 6:42 AM CST 6:34 PM CST
Astronomical Twilight 6:09 AM CST 7:07 PM CST
Moon 1:54 PM CST (1/22) 4:08 AM CST (1/22)
Length of Visible Light 10h 45m
Length of Day
9h 45m
Waxing Gibbous, 83% of the Moon is Illuminated
Jan 22
Waxing Gibbous
Jan 26
Full
Feb 3
Last Quarter
Feb 10
New
Feb 17
First Quarter

Hourly Weather History & Observations

Time (CST) Temp. Windchill Dew Point Humidity Pressure Visibility Wind Dir Wind Speed Gust Speed Precip Events Conditions
12:15 AM 12.9 °F - 1.2 °F 60% 30.34 in 10.0 mi Calm Calm - N/A   Overcast
12:35 AM 12.9 °F - 0.7 °F 58% 30.35 in 10.0 mi Calm Calm - N/A   Overcast
12:55 AM 13.1 °F - 1.9 °F 61% 30.34 in 10.0 mi Calm Calm - N/A   Overcast
1:15 AM 12.9 °F 5.2 °F 2.1 °F 62% 30.34 in 10.0 mi NE 4.6 mph - N/A   Overcast
1:55 AM 12.7 °F - 3.2 °F 66% 30.34 in 7.0 mi Calm Calm - N/A Snow Light Snow
2:15 AM 12.2 °F 6.1 °F 4.1 °F 70% 30.34 in 5.0 mi ENE 3.5 mph - N/A Snow Light Snow
2:55 AM 12.0 °F 5.9 °F 6.1 °F 77% 30.35 in 4.0 mi East 3.5 mph - N/A Snow Light Snow
3:15 AM 11.8 °F 5.7 °F 6.8 °F 80% 30.35 in 3.0 mi East 3.5 mph - N/A Snow Light Snow
3:35 AM 11.7 °F 3.7 °F 7.3 °F 83% 30.34 in 2.5 mi East 4.6 mph - N/A Snow Light Snow
3:55 AM 11.7 °F 5.5 °F 7.5 °F 83% 30.33 in 7.0 mi East 3.5 mph - N/A Snow Light Snow
4:15 AM 11.8 °F 2.5 °F 7.3 °F 82% 30.32 in 10.0 mi East 5.8 mph - N/A Snow Light Snow
4:35 AM 11.8 °F 1.3 °F 7.3 °F 82% 30.31 in 10.0 mi East 6.9 mph - N/A Snow Light Snow
4:55 AM 11.8 °F 2.5 °F 7.3 °F 82% 30.31 in 7.0 mi ESE 5.8 mph - N/A   Overcast
5:15 AM 12.0 °F 2.7 °F 7.5 °F 82% 30.31 in 10.0 mi East 5.8 mph - N/A   Overcast
5:35 AM 12.2 °F 6.1 °F 7.9 °F 83% 30.31 in 4.0 mi ESE 3.5 mph - N/A Snow Light Snow
5:55 AM 12.0 °F 4.1 °F 7.9 °F 83% 30.31 in 4.0 mi East 4.6 mph - N/A Snow Light Snow
6:15 AM 12.0 °F 4.1 °F 7.9 °F 83% 30.33 in 5.0 mi East 4.6 mph - N/A Snow Light Snow
6:35 AM 12.0 °F 4.1 °F 8.2 °F 85% 30.33 in 4.0 mi East 4.6 mph - N/A Snow Light Snow
6:55 AM 12.2 °F 6.1 °F 8.2 °F 84% 30.34 in 7.0 mi East 3.5 mph - N/A Snow Light Snow
7:15 AM 12.0 °F 2.7 °F 8.2 °F 85% 30.34 in 3.0 mi East 5.8 mph - N/A Snow Light Snow
7:35 AM 11.8 °F 2.5 °F 8.2 °F 85% 30.34 in 4.0 mi East 5.8 mph - N/A Snow Light Snow
7:55 AM 11.8 °F 2.5 °F 8.2 °F 85% 30.35 in 1.5 mi East 5.8 mph - N/A Snow Light Snow
8:15 AM 11.7 °F 1.1 °F 7.5 °F 83% 30.35 in 5.0 mi East 6.9 mph - N/A Snow Light Snow
8:35 AM 12.0 °F 2.7 °F 8.1 °F 84% 30.36 in 10.0 mi East 5.8 mph - N/A Snow Light Snow
8:55 AM 12.2 °F 2.9 °F 7.9 °F 83% 30.36 in 10.0 mi East 5.8 mph - N/A Snow Light Snow
9:35 AM 13.1 °F 2.8 °F 8.8 °F 83% 30.36 in 7.0 mi East 6.9 mph - N/A Snow Light Snow
9:55 AM 13.3 °F 3.0 °F 8.8 °F 82% 30.36 in 7.0 mi ESE 6.9 mph - N/A Snow Light Snow
10:15 AM 14.0 °F 3.9 °F 9.5 °F 82% 30.37 in 3.0 mi SE 6.9 mph - N/A Snow Light Snow
10:35 AM 14.5 °F 4.6 °F 9.5 °F 80% 30.37 in 3.0 mi SE 6.9 mph - N/A Snow Light Snow
10:55 AM 15.4 °F 3.8 °F 10.2 °F 80% 30.36 in 4.0 mi SSE 9.2 mph - N/A Snow Light Snow
11:15 AM 16.3 °F 4.9 °F 9.9 °F 76% 30.36 in 10.0 mi SSE 9.2 mph - N/A Snow Light Snow
11:35 AM 17.1 °F 8.7 °F 9.5 °F 72% 30.36 in 10.0 mi SSE 5.8 mph - N/A   Overcast
11:55 AM 17.8 °F 8.5 °F 9.7 °F 71% 30.34 in 10.0 mi SSE 6.9 mph - N/A   Overcast
12:15 PM 18.3 °F 7.3 °F 10.0 °F 70% 30.33 in 10.0 mi SSE 9.2 mph - N/A   Mostly Cloudy
12:35 PM 19.2 °F 11.3 °F 10.8 °F 70% 30.32 in 10.0 mi SSE 5.8 mph - N/A   Mostly Cloudy
12:55 PM 19.9 °F 13.4 °F 10.6 °F 67% 30.31 in 10.0 mi SSE 4.6 mph - N/A   Mostly Cloudy
1:15 PM 20.8 °F 12.1 °F 11.3 °F 67% 30.30 in 10.0 mi SE 6.9 mph - N/A   Scattered Clouds
1:35 PM 21.7 °F 13.2 °F 11.7 °F 65% 30.27 in 10.0 mi South 6.9 mph - N/A   Scattered Clouds
1:55 PM 21.9 °F 14.5 °F 12.2 °F 66% 30.26 in 10.0 mi SSE 5.8 mph 16.1 mph N/A   Scattered Clouds
2:15 PM 22.3 °F 16.1 °F 11.8 °F 64% 30.26 in 10.0 mi SSE 4.6 mph - N/A   Clear
2:35 PM 23.2 °F 14.1 °F 12.4 °F 63% 30.25 in 10.0 mi SSE 8.1 mph - N/A   Clear
2:55 PM 23.4 °F 14.3 °F 12.2 °F 62% 30.25 in 10.0 mi SE 8.1 mph - N/A   Clear
3:15 PM 23.7 °F 16.6 °F 11.5 °F 60% 30.24 in 10.0 mi SE 5.8 mph - N/A   Clear
3:35 PM 24.1 °F 15.2 °F 11.8 °F 60% 30.24 in 10.0 mi South 8.1 mph - N/A   Clear
3:55 PM 24.4 °F 16.5 °F 12.0 °F 59% 30.24 in 10.0 mi South 6.9 mph - N/A   Clear
4:15 PM 24.4 °F 15.6 °F 12.2 °F 60% 30.24 in 10.0 mi SSE 8.1 mph - N/A   Clear
4:35 PM 23.9 °F 16.8 °F 11.8 °F 60% 30.24 in 10.0 mi South 5.8 mph - N/A   Clear
4:55 PM 23.7 °F 16.6 °F 12.4 °F 62% 30.24 in 10.0 mi South 5.8 mph - N/A   Clear
5:15 PM 22.6 °F 14.3 °F 12.2 °F 64% 30.24 in 10.0 mi South 6.9 mph - N/A   Clear
5:35 PM 21.4 °F 13.8 °F 12.2 °F 68% 30.24 in 10.0 mi SSW 5.8 mph - N/A   Clear
5:55 PM 20.1 °F 13.6 °F 12.0 °F 71% 30.24 in 10.0 mi South 4.6 mph - N/A   Clear
6:15 PM 20.3 °F 15.4 °F 11.8 °F 70% 30.25 in 10.0 mi SSW 3.5 mph - N/A   Clear
6:35 PM 20.1 °F 15.2 °F 12.0 °F 71% 30.25 in 10.0 mi SSW 3.5 mph - N/A   Clear
6:55 PM 19.9 °F - 12.2 °F 72% 30.25 in 10.0 mi Calm Calm - N/A   Clear
7:15 PM 14.9 °F 6.1 °F 10.9 °F 84% 30.24 in 10.0 mi ESE 5.8 mph - N/A   Clear
7:35 PM 15.3 °F 6.6 °F 11.3 °F 84% 30.24 in 10.0 mi ESE 5.8 mph - N/A   Clear
7:55 PM 15.3 °F 5.4 °F 11.3 °F 84% 30.24 in 10.0 mi ESE 6.9 mph - N/A   Clear
8:15 PM 15.4 °F 5.6 °F 11.3 °F 84% 30.24 in 10.0 mi ESE 6.9 mph - N/A   Clear
8:35 PM 14.0 °F 3.9 °F 10.4 °F 86% 30.24 in 10.0 mi ESE 6.9 mph - N/A   Clear
8:55 PM 14.4 °F 5.5 °F 10.4 °F 84% 30.23 in 10.0 mi SE 5.8 mph - N/A   Clear
9:15 PM 14.5 °F 5.7 °F 10.8 °F 85% 30.23 in 10.0 mi SE 5.8 mph - N/A   Clear
9:35 PM 14.4 °F 6.9 °F 10.8 °F 86% 30.23 in 10.0 mi ESE 4.6 mph - N/A   Clear
9:55 PM 14.0 °F 6.5 °F 10.4 °F 86% 30.23 in 10.0 mi SE 4.6 mph - N/A   Clear
10:15 PM 13.8 °F 6.2 °F 10.4 °F 86% 30.23 in 10.0 mi SE 4.6 mph - N/A   Clear
10:35 PM 13.8 °F 4.9 °F 10.4 °F 86% 30.23 in 10.0 mi SE 5.8 mph - N/A   Clear
10:55 PM 13.1 °F 5.4 °F 10.0 °F 88% 30.23 in 10.0 mi SE 4.6 mph - N/A   Clear
11:15 PM 12.4 °F 4.6 °F 9.3 °F 88% 30.23 in 10.0 mi SE 4.6 mph - N/A   Clear
11:35 PM 12.0 °F 4.1 °F 8.8 °F 87% 30.23 in 10.0 mi SE 4.6 mph - N/A   Clear
11:55 PM 11.8 °F 3.9 °F 8.6 °F 87% 30.23 in 10.0 mi SE 4.6 mph - N/A   Clear